Location: Phoenix
(33.4480°N, 112.0730°W)
Time: 03:40:54
(UTC-07:00)

Cosmos 1470 Rocket - Visible Passes

Search period start: 24 July 2014 00:00
Search period end: 03 August 2014 00:00
Orbit: 606 x 635 km, 82.5° (Epoch: 23 July)

Date Brightness Start Highest point End Pass type
(mag) Time Alt. Az. Time Alt. Az. Time Alt. Az.
24 Jul 6.5 02:47:15 10° NE 02:48:44 12° ENE 02:50:13 10° E visible
24 Jul 3.9 04:22:41 10° NNW 04:26:52 45° W 04:30:50 11° SSW visible
25 Jul 5.8 03:03:22 10° NNE 03:06:51 23° ENE 03:10:17 10° SE visible
25 Jul 4.8 04:41:11 10° NW 04:44:36 22° W 04:47:32 12° SW visible
26 Jul 4.5 03:20:38 10° N 03:24:51 45° E 03:27:14 23° SE visible
26 Jul 5.5 05:01:00 10° WNW 05:02:14 11° W 05:03:27 10° WSW visible
27 Jul 3.4 03:38:21 10° N 03:42:45 85° W 03:44:09 43° S visible
28 Jul 6.3 02:20:29 10° NE 02:22:29 13° ENE 02:24:01 11° E visible
28 Jul 4.0 03:56:28 10° NNW 04:00:33 40° W 04:01:09 38° WSW visible
29 Jul 5.4 02:36:57 10° NNE 02:40:35 25° ENE 02:41:05 25° E visible
29 Jul 5.0 04:15:05 10° NW 04:18:14 20° W 04:18:14 20° W visible
30 Jul 4.3 02:54:18 10° N 02:58:13 49° ENE 02:58:13 49° ENE visible
31 Jul 4.1 03:12:05 10° N 03:15:24 50° NNW 03:15:24 50° NNW visible
01 Aug 6.3 01:53:50 10° NE 01:55:29 14° ENE 01:55:29 14° ENE visible
01 Aug 4.9 03:30:15 10° NNW 03:32:38 26° NW 03:32:38 26° NW visible
02 Aug 5.8 02:10:32 10° NNE 02:12:46 23° NE 02:12:46 23° NE visible
02 Aug 5.7 03:49:01 10° NW 03:49:55 13° NW 03:49:55 13° NW visible
